DECAYED

OBJECT AY, 57324 (Decayed)

Orbit data source: Space-Track

You're viewing an uncataloged RSO

Recently launched and/or uncataloged RSOs may have evolving metadata. Metadata may include the following, but is not limited to: Owner, Manufacturer, Bus, Motor, and Mission.

OBJECT AY, 57324 was a satellite in LEO that was launched on Tue, 27 Jun 2023 UTC via a SOYUZ-2-1B launch vehicle from the Vostochny Cosmodrome (VOSTO). Unknown objects in Earth's orbit typically refer to objects detected orbiting the Earth but have not yet been identified or cataloged. These objects could be anything from previously untracked satellites, spent rocket stages, debris from satellite collisions, or even natural meteoroids temporarily captured by Earth's gravity. This object's orbit decayed before it could be identified.

Not visible in the next 10 days
Identifier
57324, 2023-091AY
Orbit
Decayed
Country
Flag of TBDTBD
Related business
Flag of RUOOO Stratonavtika (RU)
Manufacturer
MKS
Mission
Decayed Commercial Communications
Bus & Motor
TINYSAT 1TU, Unknown motor
Mass
0.125 kg wet, 0.125 kg dry
Launch date (UTC)
2023-06-27 (3 years ago)
Launch vehicle
SOYUZ-2-1B
Launch site
Vostochny Cosmodrome (VOSTO)
Object type
Unknown
Shape & HBR
Box, 0.0 m
Radar Cross Section
0.004 m², Medium (>0.1 m² and < 1m²)

Expand to show TLE details & history
Last TLE update: 1 year ago

TLE from 1 year ago
0 OBJECT AY
1 57324U 23091AY  25217.78564514  .05861195  25561-5  16793-2 0  9990
2 57324  97.5286 291.8408 0015433 269.9290  90.0234 16.27221432115268
Epoch: 2025-08-05T18:51Z
TLE epoch observation values (Epoch: 2025-08-05T18:51:19.740Z)
Latitude
0.00003°
Longitude
54.43478°
Altitude
203.268 km
Speed
7.784 km/s
True Right ascension
19h 27m 21s
True Declination
0° 00' 00"
Sunlit
Object was in full shadow at epoch
Visualization orbit readout
Latitude
Unknown
Longitude
Unknown
Altitude
Unknown
Speed
Unknown
Apparent Right ascension
Unknown
Apparent Declination
Unknown
Sunlit
N/A
Visualization observer readout
Local Sidereal Time
01:04:46
Azimuth
Unknown
Elevation
Unknown
Doppler factor
Unknown
Orbital elements
Apogee altitude
206.995 km
Perigee altitude
186.7 km
Semi-major axis
6,574.985 km
Eccentricity
0.00154
Inclination
97.5286°
RAAN
291.8408°
Arg. of periapsis
269.929°
True anomaly
90.20025°
Mean anomaly
90.0234°
Eccentric anomaly
90.11182°
Mean motion
4.071 °/min
Orbital period
88.43 mins
BSTAR
0.0016793
Loading maneuver chart data...
Computing Atmospheric mass density...
Loading historical data...
Loading historical data...
Loading historical data...
Loading historical data...
Loading historical data...
Loading historical data...
Loading historical data...

Documentation

Showing up to 5 results
|